Caldwell, NJ

2:51 PM EDT on September 21, 2017 (GMT -0400)
Essex County

Weather History for KCDW - October, 2012

Change the Weather History Date:

Tuesday, October 9, 2012

  Actual Average Record
Temperature  
Mean Temperature 52 °F -  
Max Temperature 59 °F 66 °F 84 °F (2011)
Min Temperature 46 °F 43 °F 28 °F (2001)
Degree Days  
Heating Degree Days 12    
Growing Degree Days 2 (Base 50)    
Moisture  
Dew Point 48 °F    
Average Humidity 82    
Maximum Humidity 93    
Minimum Humidity 72    
Precipitation  
Precipitation 0.02 in - - ()
Sea Level Pressure  
Sea Level Pressure 30.19 in    
Wind  
Wind Speed 2 mph (ENE)    
Max Wind Speed 9 mph    
Max Gust Speed -    
Visibility 10 miles    
Events      
Averages and records for this station are not official NWS values.
T = Trace of Precipitation, MM = Missing Value Source: NWS Daily Summary

Daily Weather History Graph

Daily Weather History Graph

Search for Another Location

Airport or City:

Trip Planner

Search our weather history database for the weather conditions in past years. The results will help you decide how hot, cold, wet, or windy it might be!

Date:

Astronomy

Oct. 09, 2012 Rise Set
Actual Time 7:02 AM EDT 6:25 PM EDT
Civil Twilight 6:35 AM EDT 6:52 PM EDT
Nautical Twilight 6:03 AM EDT 7:24 PM EDT
Astronomical Twilight 5:31 AM EDT 7:56 PM EDT
Moon 12:34 AM EDT (10/9) 2:53 PM EDT (10/9)
Length of Visible Light 12h 17m
Length of Day
11h 22m
Last Quarter, 37% of the Moon is Illuminated
Oct 9
Last Quarter
Oct 15
New
Oct 21
First Quarter
Oct 29
Full
Nov 6
Last Quarter

Hourly Weather History & Observations

Time (EDT) Temp. Dew Point Humidity Pressure Visibility Wind Dir Wind Speed Gust Speed Precip Events Conditions
12:53 AM 46.9 °F 44.1 °F 90% 30.27 in 10.0 mi Calm Calm - N/A   Partly Cloudy
1:53 AM 46.9 °F 44.1 °F 90% 30.25 in 10.0 mi Calm Calm - N/A   Clear
2:53 AM 48.0 °F 45.0 °F 89% 30.24 in 10.0 mi Calm Calm - N/A   Mostly Cloudy
4:53 AM 48.0 °F 45.0 °F 89% 30.23 in 10.0 mi Calm Calm - 0.00 in   Overcast
5:53 AM 50.0 °F 45.0 °F 83% 30.23 in 10.0 mi Calm Calm - N/A   Overcast
6:53 AM 48.9 °F 45.0 °F 86% 30.23 in 10.0 mi Calm Calm - 0.02 in   Overcast
7:08 AM 48.2 °F 46.4 °F 93% 30.21 in 10.0 mi Calm Calm - N/A   Overcast
7:17 AM 48.2 °F 46.4 °F 93% 30.21 in 10.0 mi Calm Calm - N/A   Overcast
7:28 AM 48.2 °F 46.4 °F 93% 30.21 in 10.0 mi Calm Calm - N/A   Overcast
7:53 AM 50.0 °F 46.0 °F 86% 30.23 in 10.0 mi Calm Calm - N/A   Overcast
8:53 AM 51.1 °F 46.0 °F 83% 30.22 in 10.0 mi ENE 3.5 mph - N/A   Overcast
9:53 AM 54.0 °F 46.9 °F 77% 30.23 in 10.0 mi ENE 6.9 mph - 0.00 in   Overcast
10:53 AM 55.0 °F 46.9 °F 74% 30.23 in 10.0 mi NE 4.6 mph - N/A   Overcast
11:41 AM 55.4 °F 48.2 °F 77% 30.20 in 10.0 mi ENE 6.9 mph - N/A   Overcast
11:53 AM 55.9 °F 48.0 °F 75% 30.21 in 10.0 mi Variable 6.9 mph - N/A   Overcast
12:53 PM 57.9 °F 48.9 °F 72% 30.19 in 10.0 mi ENE 9.2 mph - N/A   Overcast
1:53 PM 57.9 °F 48.9 °F 72% 30.17 in 10.0 mi NE 3.5 mph - N/A   Overcast
2:53 PM 57.9 °F 48.9 °F 72% 30.15 in 10.0 mi ENE 8.1 mph - N/A   Overcast
3:53 PM 59.0 °F 50.0 °F 72% 30.15 in 10.0 mi ENE 5.8 mph - N/A   Overcast
4:53 PM 57.9 °F 50.0 °F 75% 30.15 in 10.0 mi ENE 5.8 mph - N/A   Overcast
5:53 PM 55.9 °F 51.1 °F 84% 30.14 in 10.0 mi ENE 5.8 mph - 0.00 in   Overcast
6:53 PM 55.9 °F 51.1 °F 84% 30.14 in 10.0 mi ENE 4.6 mph - N/A   Overcast
7:53 PM 55.9 °F 51.1 °F 84% 30.13 in 10.0 mi NE 3.5 mph - N/A   Overcast
8:53 PM 55.9 °F 51.1 °F 84% 30.13 in 10.0 mi Calm Calm - N/A   Overcast
9:53 PM 55.9 °F 50.0 °F 80% 30.13 in 10.0 mi Calm Calm - N/A   Overcast
10:53 PM 55.9 °F 50.0 °F 80% 30.12 in 10.0 mi NNE 3.5 mph - N/A   Overcast
11:09 PM 55.4 °F 50.0 °F 82% 30.10 in 10.0 mi NE 4.6 mph - N/A   Overcast
11:53 PM 55.9 °F 50.0 °F 80% 30.10 in 10.0 mi ENE 3.5 mph - N/A   Overcast